Weather History for Boomvang, TX

Change the Weather History Date:

Wednesday, April 16, 2014

  Actual Average Record
Temperature  
Mean Temperature 64 °F -  
Max Temperature 68 °F - - ()
Min Temperature 60 °F - - ()
Degree Days  
Heating Degree Days 1    
Growing Degree Days 14 (Base 50)    
Moisture  
Dew Point 49 °F    
Average Humidity 57    
Maximum Humidity 64    
Minimum Humidity 48    
Precipitation  
Precipitation 0.00 in - - ()
Sea Level Pressure  
Sea Level Pressure 30.09 in    
Wind  
Wind Speed 13 mph (ESE)    
Max Wind Speed 20 mph    
Max Gust Speed 21 mph    
Visibility 10 miles    
Events      
T = Trace of Precipitation, MM = Missing Value Source: NWS Daily Summary

Daily Weather History Graph

Daily Weather History Graph

Search for Another Location

Airport:

Trip Planner

Search our weather history database for the weather conditions in past years. The results will help you decide how hot, cold, wet, or windy it might be!

Date:

Astronomy

Apr. 16, 2014 Rise Set
Actual Time 6:53 AM CDT 7:43 PM CDT
Civil Twilight 6:29 AM CDT 8:07 PM CDT
Nautical Twilight 6:01 AM CDT 8:35 PM CDT
Astronomical Twilight 5:32 AM CDT 9:04 PM CDT
Moon 9:20 PM CDT (4/16) 7:46 AM CDT (4/16)
Length of Visible Light 13h 38m
Length of Day
12h 50m
Full, 98% of the Moon is Illuminated
Apr 16
Full
Apr 22
Last Quarter
Apr 29
New
May 6
First Quarter
May 14
Full

Hourly Weather History & Observations

Time (CDT) Temp. Dew Point Humidity Pressure Visibility Wind Dir Wind Speed Gust Speed Precip Events Conditions
12:15 AM 60.8 °F 41.0 °F 48% 30.18 in 10.0 mi ENE 10.4 mph 18.4 mph N/A   Scattered Clouds
12:35 AM 60.8 °F 41.0 °F 48% 30.17 in 10.0 mi East 15.0 mph - N/A   Scattered Clouds
12:55 AM 60.8 °F 42.8 °F 52% 30.16 in 10.0 mi East 15.0 mph - N/A   Scattered Clouds
1:15 AM 60.8 °F 42.8 °F 52% 30.16 in 10.0 mi East 11.5 mph 19.6 mph N/A   Partly Cloudy
1:35 AM 60.8 °F 42.8 °F 52% 30.16 in 10.0 mi East 9.2 mph 17.3 mph N/A   Scattered Clouds
1:55 AM 60.8 °F 42.8 °F 52% 30.16 in 10.0 mi East 13.8 mph - N/A   Mostly Cloudy
2:15 AM 60.8 °F 42.8 °F 52% 30.14 in 10.0 mi East 9.2 mph 18.4 mph N/A   Mostly Cloudy
2:35 AM 60.8 °F 42.8 °F 52% 30.13 in 10.0 mi ESE 13.8 mph - N/A   Mostly Cloudy
2:55 AM 60.8 °F 42.8 °F 52% 30.13 in 10.0 mi East 13.8 mph 20.7 mph N/A   Mostly Cloudy
3:15 AM 60.8 °F 44.6 °F 55% 30.12 in 10.0 mi East 16.1 mph - N/A   Mostly Cloudy
3:35 AM 60.8 °F 42.8 °F 52% 30.11 in 10.0 mi East 13.8 mph 19.6 mph N/A   Scattered Clouds
3:55 AM 60.8 °F 44.6 °F 55% 30.11 in 10.0 mi East 17.3 mph - N/A   Partly Cloudy
4:15 AM 60.8 °F 44.6 °F 55% 30.11 in 10.0 mi East 15.0 mph - N/A   Partly Cloudy
4:35 AM 60.8 °F 44.6 °F 55% 30.11 in 10.0 mi East 16.1 mph - N/A   Scattered Clouds
4:55 AM 60.8 °F 44.6 °F 55% 30.11 in 10.0 mi East 12.7 mph 19.6 mph N/A   Scattered Clouds
5:15 AM 60.8 °F 44.6 °F 55% 30.11 in 10.0 mi East 15.0 mph - N/A   Scattered Clouds
5:35 AM 60.8 °F 44.6 °F 55% 30.11 in 10.0 mi East 13.8 mph - N/A   Mostly Cloudy
5:55 AM 60.8 °F 44.6 °F 55% 30.11 in 10.0 mi ESE 15.0 mph - N/A   Scattered Clouds
6:15 AM 60.8 °F 44.6 °F 55% 30.12 in 10.0 mi ESE 13.8 mph - N/A   Mostly Cloudy
6:35 AM 60.8 °F 44.6 °F 55% 30.12 in 10.0 mi ESE 13.8 mph - N/A   Mostly Cloudy
6:55 AM 60.8 °F 46.4 °F 59% 30.12 in 10.0 mi East 12.7 mph - N/A   Mostly Cloudy
7:15 AM 60.8 °F 46.4 °F 59% 30.13 in 10.0 mi ESE 12.7 mph - N/A   Mostly Cloudy
7:35 AM 60.8 °F 46.4 °F 59% 30.12 in 10.0 mi ESE 13.8 mph - N/A   Mostly Cloudy
7:55 AM 62.6 °F 46.4 °F 55% 30.12 in 10.0 mi ESE 13.8 mph - N/A   Overcast
8:15 AM 62.6 °F 46.4 °F 55% 30.13 in 10.0 mi ESE 12.7 mph - N/A   Mostly Cloudy
8:35 AM 62.6 °F 46.4 °F 55% 30.13 in 10.0 mi ESE 13.8 mph - N/A   Mostly Cloudy
8:55 AM 62.6 °F 46.4 °F 55% 30.13 in - SE 11.5 mph - N/A   Mostly Cloudy
9:15 AM 62.6 °F 46.4 °F 55% 30.14 in 10.0 mi SE 12.7 mph - N/A   Overcast
9:35 AM 62.6 °F 48.2 °F 59% 30.14 in 10.0 mi SE 11.5 mph - N/A   Overcast
9:55 AM 64.4 °F 46.4 °F 52% 30.14 in 10.0 mi SE 10.4 mph - N/A   Overcast
10:15 AM 64.4 °F 46.4 °F 52% 30.14 in 10.0 mi SE 11.5 mph - N/A   Overcast
10:35 AM 64.4 °F 46.4 °F 52% 30.14 in 10.0 mi SE 10.4 mph - N/A   Scattered Clouds
10:55 AM 64.4 °F 48.2 °F 56% 30.14 in 10.0 mi SE 6.9 mph - N/A   Partly Cloudy
11:15 AM 64.4 °F 48.2 °F 56% 30.14 in 10.0 mi SE 8.1 mph - N/A   Scattered Clouds
11:35 AM 66.2 °F 48.2 °F 52% 30.15 in 10.0 mi SE 8.1 mph - N/A   Scattered Clouds
11:55 AM 66.2 °F 50.0 °F 56% 30.14 in 10.0 mi SE 8.1 mph - N/A   Mostly Cloudy
12:15 PM 66.2 °F 48.2 °F 52% 30.13 in 10.0 mi SE 12.7 mph - N/A   Overcast
12:35 PM 66.2 °F 46.4 °F 49% 30.13 in 10.0 mi SE 12.7 mph - N/A   Mostly Cloudy
12:55 PM 66.2 °F 50.0 °F 56% 30.12 in 10.0 mi SSE 12.7 mph - N/A   Scattered Clouds
1:15 PM 66.2 °F 50.0 °F 56% 30.11 in 10.0 mi SE 9.2 mph - N/A   Scattered Clouds
1:35 PM 66.2 °F 50.0 °F 56% 30.10 in 10.0 mi SSE 10.4 mph - N/A   Scattered Clouds
1:55 PM 66.2 °F 50.0 °F 56% 30.09 in 10.0 mi SE 11.5 mph - N/A   Partly Cloudy
2:15 PM 66.2 °F 50.0 °F 56% 30.08 in 10.0 mi SE 11.5 mph - N/A   Partly Cloudy
2:35 PM 66.2 °F 50.0 °F 56% 30.07 in 10.0 mi SE 11.5 mph - N/A   Clear
2:55 PM 66.2 °F 51.8 °F 60% 30.07 in 10.0 mi SE 10.4 mph - N/A   Scattered Clouds
3:15 PM 66.2 °F 51.8 °F 60% 30.05 in 10.0 mi SE 12.7 mph - N/A   Mostly Cloudy
3:35 PM 66.2 °F 51.8 °F 60% 30.04 in 10.0 mi ESE 15.0 mph - N/A   Mostly Cloudy
3:55 PM 66.2 °F 51.8 °F 60% 30.03 in 10.0 mi ESE 13.8 mph - N/A   Mostly Cloudy
4:15 PM 66.2 °F 51.8 °F 60% 30.03 in 10.0 mi SE 13.8 mph - N/A   Overcast
4:35 PM 66.2 °F 51.8 °F 60% 30.02 in 10.0 mi SE 13.8 mph - N/A   Mostly Cloudy
4:55 PM 66.2 °F 51.8 °F 60% 30.02 in 10.0 mi SE 13.8 mph - N/A   Scattered Clouds
5:15 PM 66.2 °F 51.8 °F 60% 30.01 in 10.0 mi SE 15.0 mph - N/A   Mostly Cloudy
5:35 PM 66.2 °F 51.8 °F 60% 30.01 in 10.0 mi SE 15.0 mph - N/A   Mostly Cloudy
5:55 PM 66.2 °F 51.8 °F 60% 30.00 in 10.0 mi ESE 17.3 mph - N/A   Overcast
6:15 PM 66.2 °F 51.8 °F 60% 30.00 in 10.0 mi ESE 18.4 mph - N/A   Mostly Cloudy
6:35 PM 66.2 °F 53.6 °F 64% 29.99 in 10.0 mi ESE 17.3 mph - N/A   Scattered Clouds
6:55 PM 66.2 °F 53.6 °F 64% 30.00 in 10.0 mi ESE 16.1 mph - N/A   Partly Cloudy
7:15 PM 66.2 °F 53.6 °F 64% 30.00 in 10.0 mi ESE 12.7 mph 19.6 mph N/A   Mostly Cloudy
7:35 PM 66.2 °F 53.6 °F 64% 30.00 in 10.0 mi ESE 13.8 mph - N/A   Overcast
7:55 PM 66.2 °F 51.8 °F 60% 30.01 in 10.0 mi ESE 13.8 mph - N/A   Overcast
8:15 PM 66.2 °F 53.6 °F 64% 30.01 in 10.0 mi ESE 15.0 mph - N/A   Overcast
8:35 PM 66.2 °F 51.8 °F 60% 30.01 in 10.0 mi ESE 16.1 mph - N/A   Mostly Cloudy
8:55 PM 66.2 °F 51.8 °F 60% 30.03 in 10.0 mi SE 12.7 mph - N/A   Partly Cloudy
9:15 PM 68.0 °F 53.6 °F 60% 30.03 in 10.0 mi SE 12.7 mph - N/A   Scattered Clouds
9:35 PM 66.2 °F 51.8 °F 60% 30.03 in 10.0 mi SE 12.7 mph - N/A   Overcast
9:55 PM 68.0 °F 51.8 °F 56% 30.04 in 10.0 mi SE 12.7 mph - N/A   Mostly Cloudy
10:15 PM 68.0 °F 53.6 °F 60% 30.04 in 10.0 mi ESE 15.0 mph - N/A   Mostly Cloudy
10:35 PM 68.0 °F 53.6 °F 60% 30.04 in 10.0 mi ESE 16.1 mph - N/A   Overcast
10:55 PM 68.0 °F 53.6 °F 60% 30.04 in 10.0 mi ESE 17.3 mph - N/A   Overcast
11:15 PM 68.0 °F 53.6 °F 60% 30.03 in 10.0 mi ESE 19.6 mph - N/A   Overcast
11:35 PM 68.0 °F 55.4 °F 64% 30.02 in 10.0 mi ESE 18.4 mph - N/A   Scattered Clouds
11:55 PM 68.0 °F 55.4 °F 64% 30.02 in 10.0 mi ESE 17.3 mph - N/A   Scattered Clouds